[[{"header":{"parameterUnit":"m.s-1","parameterCategory":1,"la1":30.2991,"la2":30.254,"lo1":-89.0895,"lo2":-89.0444,"dy":0.0017,"dx":0.0017,"nx":28,"ny":28,"refTime":"2023-08-21T21:00:00:Z","depth":0,"parameterNumber":2,"parameterNumberName":"U-component_of_WINDS"},"data":[0,0,0,0,0,0,0,0,0,0,0,0,0,0,0,0,0,0,0,0,0,0,0,0,0,0,0,0,0,0,0,0,0,0,0,0,0,0,0,0,0,0,0,0,0,0,0,0,0,0,0,0,0,0,0,0,0,0,-0.5851,-0.5851,0,-0.5831,-0.5831,-0.5831,-0.5917,-0.5919,-0.5922,-0.5924,-0.5901,-0.5898,-0.5895,0,0,0,0,0,0,0,0,0,0,0,0,0,-0.5961,-0.5959,-0.5851,-0.5851,-0.5851,-0.5831,-0.5831,-0.5831,-0.5916,-0.5919,-0.5922,-0.5925,-0.5902,-0.5898,-0.5895,0,0,0,0,0,0,0,0,0,0,0,0,0,-0.5924,-0.5958,-0.5851,-0.5891,-0.5895,-0.5831,-0.5831,-0.5831,-0.5916,-0.5919,-0.5923,-0.5927,-0.5903,-0.5898,-0.5894,-0.579,0,0,-0.588,-0.5878,0,0,0,0,0,0,0,0,-0.5926,-0.592,-0.5885,-0.5888,-0.5892,-0.588,-0.5861,-0.5817,-0.5915,-0.5907,-0.5924,-0.5929,-0.5891,-0.5887,-0.5875,-0.5789,-0.5788,-0.588,-0.5877,-0.5875,-0.5874,0,0,0,0,0,0,0,-0.5929,-0.5921,-0.5843,-0.5885,-0.5889,-0.5909,-0.5908,-0.5853,-0.5878,-0.5908,-0.5915,-0.5911,-0.5893,-0.5879,-0.5875,-0.5788,-0.588,-0.5876,-0.5873,-0.5872,-0.5616,-0.5612,0,0,0,0,0,0,-0.5926,-0.5923,-0.5844,-0.5843,-0.5919,-0.5904,-0.5903,-0.588,-0.5879,-0.5882,-0.5908,-0.5915,-0.5885,-0.588,-0.5875,-0.5753,-0.5875,-0.5871,-0.5869,-0.562,-0.5615,-0.5611,0,0,0,0,0,0,-0.5928,-0.5918,-0.5845,-0.5884,-0.5877,-0.5898,-0.5872,-0.5878,-0.5864,-0.5879,-0.5883,-0.5889,-0.5888,-0.5881,-0.5811,-0.5753,-0.5869,-0.5865,-0.5625,-0.5619,-0.5613,-0.5509,0,0,0,0,0,0,-0.5931,-0.5919,-0.588,-0.5883,-0.5874,-0.5781,-0.5868,-0.5875,-0.5857,-0.5866,-0.5862,-0.5865,-0.589,-0.5817,-0.5806,-0.5749,-0.5862,-0.563,-0.5622,-0.5615,-0.5517,-0.55,-0.5485,0,0,0,0,0,-0.5935,-0.5851,-0.5877,-0.5867,-0.5826,-0.5778,-0.5773,-0.5804,-0.5852,-0.5812,-0.5822,-0.5865,-0.5762,-0.5809,-0.5798,-0.5739,-0.5634,-0.5625,-0.5616,-0.5525,-0.5503,-0.5485,0,0,0,0,0,0,-0.5839,-0.5852,-0.5882,-0.5796,-0.5785,-0.5793,-0.5744,-0.578,-0.5755,-0.5765,-0.5804,-0.5802,-0.5725,-0.5725,-0.5778,-0.5638,-0.5706,-0.5694,-0.5641,-0.562,-0.5604,-0.5605,-0.5858,0,0,0,0,0,-0.5808,-0.5768,-0.5782,-0.5705,-0.5698,-0.5722,-0.5702,-0.5727,-0.5717,-0.5713,-0.5717,-0.5705,-0.567,-0.5645,-0.5614,-0.5518,-0.5518,-0.5472,-0.5456,-0.5442,-0.5431,-0.538,-0.5359,-0.5581,-0.5581,-0.5581,0,0,-0.5743,-0.5745,-0.5718,-0.5686,-0.568,-0.5637,-0.5717,-0.5669,-0.5637,-0.5705,-0.5639,-0.5642,-0.5631,-0.5547,-0.5511,-0.5545,-0.537,-0.5431,-0.542,-0.5416,-0.5368,-0.5347,-0.5329,-0.5574,-0.5575,-0.5576,0,0,-0.5603,-0.5601,-0.5537,-0.553,-0.5522,-0.5538,-0.5523,-0.5525,-0.5529,-0.5464,-0.5514,-0.5477,-0.5416,-0.5406,-0.5393,-0.525,-0.5289,-0.5239,-0.5153,-0.5103,-0.5085,-0.507,-0.5018,-0.4999,-0.5228,-0.5228,-0.5228,0,-0.5523,-0.5462,-0.5499,-0.5447,-0.5431,-0.5493,-0.5427,-0.5419,-0.5399,-0.5387,-0.5426,-0.535,-0.5347,-0.5262,-0.5228,-0.5216,-0.5198,-0.5239,-0.5085,-0.507,-0.5056,-0.5007,-0.4988,-0.5222,-0.5222,-0.5223,-0.5224,0,-0.5363,-0.532,-0.5269,-0.525,-0.5229,-0.517,-0.5198,-0.5172,-0.52,-0.5212,-0.5144,-0.5143,-0.5112,-0.5095,-0.5121,-0.5013,-0.5035,-0.5079,-0.5147,-0.5028,-0.4983,-0.4965,-0.5213,-0.5215,-0.5217,-0.5218,0,0,-0.516,-0.5164,-0.5145,-0.5137,-0.5133,-0.5099,-0.5044,-0.5015,-0.4991,-0.4976,-0.493,-0.4877,-0.4918,-0.4903,-0.4929,-0.4885,-0.4771,-0.4935,-0.4935,-0.4903,-0.4652,-0.4617,-0.4595,-0.4798,-0.4795,-0.4792,-0.4653,0,-0.5022,-0.4928,-0.496,-0.4864,-0.4824,-0.4882,-0.4834,-0.4825,-0.4836,-0.4803,-0.4814,-0.4776,-0.4833,-0.4825,-0.4784,-0.4794,-0.4721,-0.4805,-0.4754,-0.4752,-0.4753,-0.4572,-0.4535,-0.4403,-0.4635,-0.4632,-0.463,0,-0.4847,-0.4827,-0.4727,-0.473,-0.4714,-0.467,-0.4646,-0.4614,-0.4606,-0.4617,-0.46,-0.4636,-0.4581,-0.4651,-0.4575,-0.4631,-0.4613,-0.4614,-0.461,-0.4605,-0.4682,-0.456,-0.4362,-0.4342,-0.4603,-0.4605,-0.4607,0,-0.4708,-0.4655,-0.4588,-0.458,-0.4582,-0.455,-0.4549,-0.4545,-0.4525,-0.4505,-0.4492,-0.4465,-0.4449,-0.4427,-0.4454,-0.4502,-0.4374,-0.4446,-0.438,-0.4379,-0.4348,-0.4349,-0.4143,-0.4339,-0.4339,-0.434,-0.434,0,-0.4549,-0.4485,-0.4526,-0.4484,-0.4414,-0.4453,-0.4382,-0.4388,-0.4384,-0.4344,-0.4393,-0.4355,-0.4393,-0.4358,-0.4379,-0.4312,-0.4305,-0.4311,-0.4317,-0.4306,-0.4305,-0.4293,-0.4302,-0.4334,-0.4336,-0.4337,-0.4337,0,-0.438,-0.4405,-0.4336,-0.4344,-0.4345,-0.4293,-0.43,-0.4261,-0.4276,-0.4225,-0.4215,-0.4237,-0.4199,-0.4224,-0.4185,-0.4199,-0.4111,-0.4131,-0.4114,-0.4119,-0.405,-0.4056,-0.3827,-0.3799,-0.4015,-0.4013,-0.4011,0,-0.4276,-0.4228,-0.4232,-0.421,-0.4206,-0.4169,-0.415,-0.4186,-0.4164,-0.4152,-0.4114,-0.408,-0.4055,-0.399,-0.4002,-0.3972,-0.3991,-0.3913,-0.3986,-0.3976,-0.3988,-0.3989,-0.3985,-0.3897,-0.3894,-0.3892,-0.3891,0,-0.4088,-0.4104,-0.4075,-0.405,-0.4026,-0.4008,-0.3994,-0.3973,-0.4009,-0.3982,-0.3944,-0.3924,-0.3884,-0.3849,-0.3825,-0.3823,-0.3862,-0.3868,-0.3851,-0.3838,-0.3829,-0.3832,-0.4072,-0.3872,-0.3874,-0.3876,-0.3877,-0.3877,-0.3948,-0.3908,-0.3905,-0.3871,-0.3865,-0.3851,-0.3815,-0.3826,-0.3795,-0.3767,-0.379,-0.3744,-0.3737,-0.3709,-0.3702,-0.3666,-0.3698,-0.3673,-0.3667,-0.366,-0.3649,-0.3837,-0.3662,-0.3663,-0.3663,-0.3664,-0.3664,0,-0.3762,-0.3763,-0.3732,-0.3711,-0.3685,-0.3726,-0.3713,-0.3687,-0.3646,-0.3638,-0.3612,-0.3568,-0.3534,-0.3545,-0.3515,-0.3484,-0.3501,-0.3475,-0.3476,-0.3475,-0.3624,-0.3641,-0.3461,-0.3461,-0.3461,-0.3461,-0.3461,-0.3461,-0.3662,-0.3597,-0.3612,-0.3544,-0.3546,-0.3502,-0.349,-0.3477,-0.3471,-0.342,-0.3392,-0.34,-0.3399,-0.3369,-0.334,-0.3344,-0.333,-0.3297,-0.3307,-0.3445,-0.3465,-0.3484,-0.35,-0.3294,-0.3294,-0.3161,-0.316,-0.3159]},{"header":{"parameterUnit":"m.s-1","parameterCategory":1,"la1":30.2991,"la2":30.254,"lo1":-89.0895,"lo2":-89.0444,"dy":0.0017,"dx":0.0017,"nx":28,"ny":28,"refTime":"2023-08-21T21:00:00:Z","depth":0,"parameterNumber":3,"parameterNumberName":"V-component_of_WINDS"},"data":[0,0,0,0,0,0,0,0,0,0,0,0,0,0,0,0,0,0,0,0,0,0,0,0,0,0,0,0,0,0,0,0,0,0,0,0,0,0,0,0,0,0,0,0,0,0,0,0,0,0,0,0,0,0,0,0,0,0,-2.0932,-2.0932,0,-2.0946,-2.0946,-2.0946,-2.0934,-2.0933,-2.0933,-2.0932,-2.0946,-2.0947,-2.0947,0,0,0,0,0,0,0,0,0,0,0,0,0,-2.0895,-2.0896,-2.0932,-2.0932,-2.0932,-2.0946,-2.0946,-2.0946,-2.0934,-2.0933,-2.0932,-2.0932,-2.0945,-2.0946,-2.0947,0,0,0,0,0,0,0,0,0,0,0,0,0,-2.091,-2.0896,-2.0932,-2.0927,-2.0927,-2.0946,-2.0946,-2.0946,-2.0934,-2.0933,-2.0932,-2.0932,-2.0945,-2.0946,-2.0948,-2.0971,0,0,-2.0951,-2.0952,0,0,0,0,0,0,0,0,-2.0909,-2.0912,-2.0928,-2.0928,-2.0928,-2.0937,-2.0938,-2.0955,-2.0934,-2.0931,-2.0932,-2.0931,-2.0943,-2.0945,-2.0949,-2.0972,-2.0972,-2.0952,-2.0952,-2.0953,-2.0953,0,0,0,0,0,0,0,-2.0908,-2.0911,-2.0937,-2.0928,-2.0928,-2.0925,-2.0927,-2.0941,-2.0941,-2.0931,-2.0931,-2.0932,-2.0943,-2.0948,-2.0949,-2.0972,-2.0952,-2.0953,-2.0953,-2.0954,-2.1018,-2.1019,0,0,0,0,0,0,-2.0908,-2.091,-2.0937,-2.0938,-2.0916,-2.0927,-2.0928,-2.0935,-2.0941,-2.0942,-2.0933,-2.0932,-2.0946,-2.0948,-2.095,-2.098,-2.0953,-2.0954,-2.0955,-2.1017,-2.1018,-2.1019,0,0,0,0,0,0,-2.0907,-2.091,-2.0936,-2.0924,-2.0927,-2.0928,-2.0936,-2.0936,-2.094,-2.0943,-2.0943,-2.0938,-2.0946,-2.0948,-2.0967,-2.098,-2.0955,-2.0956,-2.1016,-2.1017,-2.1019,-2.1039,0,0,0,0,0,0,-2.0906,-2.091,-2.0918,-2.0924,-2.0928,-2.0952,-2.0937,-2.0936,-2.0943,-2.0941,-2.0947,-2.0947,-2.0945,-2.0965,-2.0968,-2.0981,-2.0957,-2.1015,-2.1017,-2.1018,-2.1037,-2.1041,-2.1044,0,0,0,0,0,-2.0905,-2.0922,-2.0919,-2.0922,-2.0938,-2.0953,-2.0955,-2.0953,-2.0944,-2.0953,-2.0955,-2.0947,-2.0978,-2.0967,-2.097,-2.0984,-2.1014,-2.1016,-2.1018,-2.1035,-2.104,-2.1044,0,0,0,0,0,0,-2.0917,-2.0923,-2.0919,-2.0939,-2.0946,-2.0951,-2.0962,-2.0957,-2.0966,-2.0964,-2.0961,-2.0962,-2.0983,-2.0985,-2.0972,-2.1009,-2.0995,-2.0998,-2.1007,-2.1011,-2.1014,-2.1014,-2.0958,0,0,0,0,0,-2.0922,-2.0934,-2.0938,-2.0956,-2.096,-2.096,-2.0967,-2.0965,-2.0971,-2.0974,-2.0977,-2.0984,-2.0996,-2.1003,-2.1014,-2.1037,-2.104,-2.1049,-2.1052,-2.1055,-2.1058,-2.1073,-2.1078,-2.1026,-2.1026,-2.1026,0,0,-2.0933,-2.0938,-2.0945,-2.0958,-2.0963,-2.0977,-2.0963,-2.0976,-2.0986,-2.0976,-2.0994,-2.0997,-2.1005,-2.1027,-2.1037,-2.103,-2.1073,-2.1058,-2.106,-2.1061,-2.1076,-2.1081,-2.1086,-2.1028,-2.1027,-2.1027,0,0,-2.0959,-2.0963,-2.0979,-2.0985,-2.0994,-2.0995,-2.0999,-2.1005,-2.1007,-2.1026,-2.1019,-2.1031,-2.105,-2.1057,-2.1063,-2.1096,-2.109,-2.1099,-2.1118,-2.1133,-2.1137,-2.1141,-2.1154,-2.1159,-2.1102,-2.1102,-2.1102,0,-2.0971,-2.099,-2.0988,-2.1003,-2.1011,-2.1003,-2.1021,-2.1026,-2.1038,-2.1043,-2.1035,-2.1062,-2.1066,-2.1091,-2.1099,-2.1103,-2.1109,-2.1098,-2.1137,-2.114,-2.1144,-2.1157,-2.1162,-2.1103,-2.1103,-2.1103,-2.1103,0,-2.1006,-2.102,-2.1032,-2.1045,-2.1053,-2.1069,-2.1071,-2.108,-2.1077,-2.108,-2.11,-2.1106,-2.1119,-2.1124,-2.1121,-2.115,-2.1145,-2.1137,-2.1123,-2.115,-2.1162,-2.1167,-2.1105,-2.1104,-2.1104,-2.1104,0,0,-2.1039,-2.1053,-2.1057,-2.1064,-2.1074,-2.1085,-2.1102,-2.1116,-2.1125,-2.1133,-2.1149,-2.1167,-2.116,-2.1167,-2.1165,-2.1178,-2.1207,-2.1169,-2.1169,-2.1177,-2.1241,-2.1249,-2.1255,-2.1203,-2.1204,-2.1205,-2.1242,0,-2.1067,-2.1097,-2.1097,-2.1125,-2.1139,-2.1134,-2.1149,-2.1157,-2.116,-2.1173,-2.1176,-2.119,-2.1179,-2.1184,-2.1197,-2.1201,-2.122,-2.1198,-2.1218,-2.1219,-2.1218,-2.1261,-2.1268,-2.1302,-2.1246,-2.1247,-2.1248,0,-2.1104,-2.1116,-2.1146,-2.1157,-2.1163,-2.1176,-2.119,-2.1202,-2.1213,-2.1214,-2.1224,-2.1221,-2.1239,-2.1224,-2.1251,-2.1236,-2.1245,-2.1248,-2.125,-2.1252,-2.1236,-2.1266,-2.1313,-2.1319,-2.1255,-2.1254,-2.1254,0,-2.1128,-2.1151,-2.1173,-2.1179,-2.1191,-2.1202,-2.1207,-2.1217,-2.1226,-2.1239,-2.1245,-2.1259,-2.1267,-2.1279,-2.128,-2.1269,-2.1308,-2.1293,-2.1311,-2.1312,-2.132,-2.132,-2.1371,-2.1323,-2.1323,-2.1323,-2.1323,0,-2.116,-2.1179,-2.1184,-2.1197,-2.1219,-2.122,-2.1241,-2.1246,-2.1256,-2.1271,-2.1266,-2.1281,-2.1281,-2.1296,-2.1298,-2.1321,-2.1324,-2.1327,-2.1328,-2.1328,-2.1328,-2.1335,-2.1333,-2.1325,-2.1324,-2.1324,-2.1324,0,-2.119,-2.1194,-2.1218,-2.1229,-2.1233,-2.1249,-2.1259,-2.1272,-2.1276,-2.1295,-2.13,-2.1306,-2.1324,-2.1326,-2.1347,-2.1348,-2.1377,-2.1374,-2.1374,-2.1374,-2.1393,-2.1392,-2.1451,-2.146,-2.1405,-2.1405,-2.1406,0,-2.1211,-2.1226,-2.124,-2.1251,-2.1257,-2.1274,-2.1284,-2.1286,-2.1297,-2.1312,-2.1324,-2.1342,-2.1356,-2.1385,-2.1391,-2.1408,-2.1406,-2.1426,-2.1409,-2.141,-2.1409,-2.1409,-2.1412,-2.1429,-2.143,-2.143,-2.1431,0,-2.1249,-2.1251,-2.1266,-2.1283,-2.1296,-2.1309,-2.1321,-2.133,-2.1333,-2.1346,-2.1365,-2.1377,-2.1399,-2.1418,-2.1435,-2.1441,-2.1438,-2.1436,-2.1442,-2.1444,-2.1444,-2.1447,-2.1385,-2.1435,-2.1435,-2.1434,-2.1434,-2.1434,-2.1276,-2.1291,-2.1304,-2.1322,-2.1332,-2.1344,-2.1358,-2.1365,-2.1381,-2.14,-2.14,-2.1422,-2.1435,-2.1457,-2.1465,-2.1483,-2.1477,-2.1484,-2.1486,-2.1489,-2.1492,-2.144,-2.1486,-2.1486,-2.1485,-2.1485,-2.1485,0,-2.1316,-2.1325,-2.1341,-2.136,-2.1375,-2.137,-2.1385,-2.1398,-2.1417,-2.1429,-2.1445,-2.1468,-2.1487,-2.1496,-2.1514,-2.1527,-2.1526,-2.1532,-2.1532,-2.1534,-2.1495,-2.1489,-2.1533,-2.1533,-2.1533,-2.1533,-2.1533,-2.1533,-2.1338,-2.1363,-2.1367,-2.1398,-2.1406,-2.1428,-2.1437,-2.1449,-2.146,-2.1487,-2.1503,-2.1509,-2.1521,-2.1541,-2.1559,-2.1561,-2.1569,-2.1576,-2.1578,-2.1541,-2.1536,-2.1532,-2.1527,-2.1577,-2.1577,-2.1616,-2.1616,-2.1616]}]]